(166880) = 2001 UT181 = 2002 XD83

Discovered at Socorro on 2002-12-13 by LINEAR.

Orbit

Orbit type: Main Belt

Note: WebGL enabled browser required.

epoch2023-09-13.0
epoch JD2460200.5
perihelion date2019-07-10.51029
perihelion JD2458675.01029
argument of perihelion (°)36.41644
ascending node (°)82.95486
inclination (°)5.09596
eccentricity0.0737034
perihelion distance (AU)2.8532080
Tisserand w.r.t. Jupiter3.2
ΔV w.r.t. Earth (km/sec)10.6
semimajor axis (AU)3.0802317
mean anomaly (°)278.12374
mean daily motion (°/day)0.18231770
aphelion distance (AU)3.307
period (years)5.41
P-vector [x]-0.48813852
P-vector [y]0.77830952
P-vector [z]0.39491148
Q-vector [x]-0.86830280
Q-vector [y]-0.47878556
Q-vector [z]-0.12967129
absolute magnitude15.21
phase slope0.15
uncertainty0
referenceMPEC 2024-A141
observations used930
oppositions17
arc length (days)8150
first opposition used2001
last opposition used2024
residual rms (arc-secs)0.74
perturbers coarse indicatorM-v
perturbers precise indicator003Ek
first observation date used2001-09-18.0
last observation date used2024-01-11.0
computer nameMPCLINUX
JD of orbit computation2456700.463144
perihelion JD uncertainty (days)2.1763E-04
argument of perihelion uncertainty (°)7.1793E-05
ascending node uncertainty (°)5.8804E-05
inclination uncertainty (°)5.3583E-06
eccentricity uncertainty 4.4364E-08
perihelion distance uncertainty (AU)1.4401E-07
Minimum Orbit Intersection Distances (in AU)
for orbit epoch: 2460200.5, reference: E2024-AE1
Mercury2.52309
Venus2.13471
Earth1.87002
Mars1.20847
Jupiter1.76262
Saturn6.15166
Uranus15.5203
Neptune26.7139

Observations

954 total observations over interval: 2001 09 18.37227 – 2024 01 11.130916
These data are available for download (format description).

Date (UT) J2000 RA J2000 Dec Magn Location Ref
2001 09 18.37227 00 20 43.31 -05 46 34.9 19.5 R 699 – Lowell Observatory-LONEOS MPS 69894
2001 09 18.39115 00 20 42.47 -05 46 41.6   699 – Lowell Observatory-LONEOS MPS 69894
2001 09 18.41004 00 20 41.72 -05 46 46.7   699 – Lowell Observatory-LONEOS MPS 69894
2001 09 18.42899 00 20 40.84 -05 46 52.7   699 – Lowell Observatory-LONEOS MPS 69894
2001 09 21.25561 00 18 36.57 -06 00 37.0 19.5   704 – Lincoln Laboratory ETS, New Mexico MPS 81519
2001 09 21.26994 00 18 36.07 -06 00 40.3 19.6   704 – Lincoln Laboratory ETS, New Mexico MPS 81519
2001 09 21.28509 00 18 35.44 -06 00 43.1 20.0   704 – Lincoln Laboratory ETS, New Mexico MPS 81519
2001 10 16.17393 00 00 47.34 -07 36 00.7 20.5   644 – Palomar Mountain/NEAT MPS 57210
2001 10 16.19490 00 00 46.52 -07 36 04.3 20.0   644 – Palomar Mountain/NEAT MPS 57210
2001 10 16.21596 00 00 45.70 -07 36 07.2 19.9   644 – Palomar Mountain/NEAT MPS 57210
2001 10 17.22430 00 00 08.87 -07 38 30.7 20.4   644 – Palomar Mountain/NEAT MPS 57210
2001 10 17.24455 00 00 08.10 -07 38 33.5 19.9   644 – Palomar Mountain/NEAT MPS 57210
2001 10 17.26641 00 00 07.29 -07 38 36.9 19.8   644 – Palomar Mountain/NEAT MPS 57210
2002 12 05.29403 05 50 47.52 +23 21 31.0 19.1   704 – Lincoln Laboratory ETS, New Mexico MPS 70137
2002 12 05.30950 05 50 46.72 +23 21 32.2 19.3   704 – Lincoln Laboratory ETS, New Mexico MPS 70137
2002 12 05.32482 05 50 45.86 +23 21 33.6 19.0   704 – Lincoln Laboratory ETS, New Mexico MPS 70137
2002 12 08.24564 05 48 13.84 +23 25 45.2 19.8 V 291 – LPL/Spacewatch II MPS 70137
2002 12 08.27091 05 48 12.52 +23 25 47.7 19.5 V 291 – LPL/Spacewatch II MPS 70137
2002 12 08.30378 05 48 10.67 +23 25 50.9 20.6 V 291 – LPL/Spacewatch II MPS 70137
2002 12 13.28937 05 43 39.15 +23 32 39.1 19.0   704 – Lincoln Laboratory ETS, New Mexico MPS 68463
2002 12 13.30444 05 43 38.20 +23 32 40.2 19.6   704 – Lincoln Laboratory ETS, New Mexico MPS 68463
2002 12 13.32085 05 43 37.34 +23 32 41.5 19.0   704 – Lincoln Laboratory ETS, New Mexico MPS 68463
2002 12 13.33614 05 43 36.46 +23 32 42.7 19.6   704 – Lincoln Laboratory ETS, New Mexico MPS 68463
2002 12 14.29465 05 42 43.11 +23 33 59.2 19.0   704 – Lincoln Laboratory ETS, New Mexico MPS 68463
2002 12 14.31016 05 42 42.27 +23 33 59.7 19.5   704 – Lincoln Laboratory ETS, New Mexico MPS 68463
2002 12 14.32555 05 42 41.38 +23 34 01.9 19.2   704 – Lincoln Laboratory ETS, New Mexico MPS 68463
2002 12 14.35647 05 42 39.58 +23 34 03.2 19.3   704 – Lincoln Laboratory ETS, New Mexico MPS 68463
2002 12 31.22510 05 27 15.53 +23 52 41.2 19.1   704 – Lincoln Laboratory ETS, New Mexico MPS 70137
2002 12 31.24019 05 27 14.72 +23 52 41.7 19.4   704 – Lincoln Laboratory ETS, New Mexico MPS 70137
2002 12 31.25510 05 27 13.96 +23 52 44.1 19.2   704 – Lincoln Laboratory ETS, New Mexico MPS 70137
2002 12 31.27007 05 27 13.19 +23 52 44.1 19.1   704 – Lincoln Laboratory ETS, New Mexico MPS 70137
2002 12 31.28641 05 27 12.29 +23 52 46.0 19.4   704 – Lincoln Laboratory ETS, New Mexico MPS 70137
2003 01 01.27873 05 26 22.55 +23 53 39.7 20.1   704 – Lincoln Laboratory ETS, New Mexico MPS 70137
2003 01 01.29389 05 26 21.65 +23 53 39.9 19.9   704 – Lincoln Laboratory ETS, New Mexico MPS 70137
2003 01 01.30884 05 26 20.88 +23 53 41.5 19.6   704 – Lincoln Laboratory ETS, New Mexico MPS 70137
2003 01 01.32395 05 26 20.11 +23 53 41.2 19.9   704 – Lincoln Laboratory ETS, New Mexico MPS 70137
2003 01 02.14644 05 25 39.87 +23 54 27.5 19.5 C 704 – Lincoln Laboratory ETS, New Mexico MPS 291367
2003 01 02.20818 05 25 36.66 +23 54 28.7 19.3 C 704 – Lincoln Laboratory ETS, New Mexico MPS 291367
2003 01 08.24174 05 21 00.63 +23 59 37.0 19.4   704 – Lincoln Laboratory ETS, New Mexico MPS 70137
2003 01 08.25646 05 20 59.95 +23 59 37.8 20.3   704 – Lincoln Laboratory ETS, New Mexico MPS 70137
2003 01 08.28723 05 20 58.60 +23 59 39.4 19.6   704 – Lincoln Laboratory ETS, New Mexico MPS 70137
2003 01 08.30198 05 20 57.99 +23 59 39.5 19.9   704 – Lincoln Laboratory ETS, New Mexico MPS 70137
2004 02 19.38814 12 42 09.16 +03 14 50.0 19.6   704 – Lincoln Laboratory ETS, New Mexico MPS 100092
2004 02 19.40015 12 42 08.86 +03 14 52.8 19.8   704 – Lincoln Laboratory ETS, New Mexico MPS 100092
2004 02 19.42644 12 42 08.35 +03 14 59.1 20.1   704 – Lincoln Laboratory ETS, New Mexico MPS 100092
2004 02 25.30890 12 39 54.47 +03 39 30.4 19.6   704 – Lincoln Laboratory ETS, New Mexico MPS 100092
2004 02 25.32103 12 39 54.13 +03 39 35.2 20.5   704 – Lincoln Laboratory ETS, New Mexico MPS 100092
2004 02 25.33374 12 39 53.78 +03 39 38.6 19.7   704 – Lincoln Laboratory ETS, New Mexico MPS 100092
2004 02 25.34520 12 39 53.44 +03 39 42.2 20.1   704 – Lincoln Laboratory ETS, New Mexico MPS 100092
2004 02 26.34032 12 39 26.61 +03 44 07.5 19.8   704 – Lincoln Laboratory ETS, New Mexico MPS 100092
2004 02 26.35229 12 39 26.15 +03 44 11.7 19.9   704 – Lincoln Laboratory ETS, New Mexico MPS 100092
2004 02 26.36467 12 39 25.79 +03 44 15.4 19.9   704 – Lincoln Laboratory ETS, New Mexico MPS 100092
2004 02 26.37705 12 39 25.40 +03 44 18.6 20.2   704 – Lincoln Laboratory ETS, New Mexico MPS 100092
2004 02 26.38251 12 39 25.23 +03 44 21.3 19.6   704 – Lincoln Laboratory ETS, New Mexico MPS 100092
2004 02 26.39465 12 39 24.91 +03 44 23.2 19.6   704 – Lincoln Laboratory ETS, New Mexico MPS 100092
2004 02 26.40625 12 39 24.58 +03 44 26.3 19.9   704 – Lincoln Laboratory ETS, New Mexico MPS 100092
2004 02 26.42975 12 39 23.85 +03 44 32.9 19.7   704 – Lincoln Laboratory ETS, New Mexico MPS 100092
2004 03 15.31381 12 28 26.56 +05 12 55.6 19.6   704 – Lincoln Laboratory ETS, New Mexico MPS 101200
2004 03 15.32461 12 28 26.05 +05 12 58.5 20.5   704 – Lincoln Laboratory ETS, New Mexico MPS 101200
2004 03 15.34604 12 28 25.00 +05 13 04.9 19.7   704 – Lincoln Laboratory ETS, New Mexico MPS 101200
2004 03 15.35707 12 28 24.57 +05 13 08.1 19.4   704 – Lincoln Laboratory ETS, New Mexico MPS 101200
2004 03 16.40904 12 27 38.19 +05 18 28.8 20.6 R 333 – Desert Eagle Observatory MPS 101200
2004 03 16.42203 12 27 37.58 +05 18 31.4 20.8 R 333 – Desert Eagle Observatory MPS 101200
2004 03 16.43443 12 27 37.01 +05 18 35.2 20.4 R 333 – Desert Eagle Observatory MPS 101200
2004 03 20.33724 12 24 41.39 +05 38 00.9 19.4   704 – Lincoln Laboratory ETS, New Mexico MPS 102206
2004 03 20.34786 12 24 40.85 +05 38 05.3 20.0   704 – Lincoln Laboratory ETS, New Mexico MPS 102206
2004 03 20.35866 12 24 40.31 +05 38 07.0 19.7   704 – Lincoln Laboratory ETS, New Mexico MPS 102206
2004 03 20.36929 12 24 39.82 +05 38 11.2 19.6   704 – Lincoln Laboratory ETS, New Mexico MPS 102206
2004 03 20.38005 12 24 39.38 +05 38 13.8 19.6   704 – Lincoln Laboratory ETS, New Mexico MPS 102206
2004 03 22.35184 12 23 08.88 +05 47 46.5 19.5   704 – Lincoln Laboratory ETS, New Mexico MPS 102206
2004 03 22.36343 12 23 08.39 +05 47 50.3 19.6   704 – Lincoln Laboratory ETS, New Mexico MPS 102206
2004 03 22.38545 12 23 07.24 +05 47 55.1 19.4   704 – Lincoln Laboratory ETS, New Mexico MPS 102206
2004 03 22.39640 12 23 06.78 +05 47 59.0 19.5   704 – Lincoln Laboratory ETS, New Mexico MPS 102206
2004 03 28.29323 12 18 34.44 +06 14 50.5 19.5 V 703 – Catalina Sky Survey MPS 103147
2004 03 28.30685 12 18 33.87 +06 14 53.3 19.7 V 703 – Catalina Sky Survey MPS 103147
2004 03 28.32046 12 18 33.18 +06 14 58.6 19.1 V 703 – Catalina Sky Survey MPS 103147
2004 03 28.33414 12 18 32.51 +06 15 00.9 19.8 V 703 – Catalina Sky Survey MPS 103147
2004 04 15.24054 12 06 02.99 +07 12 52.9 19.7   704 – Lincoln Laboratory ETS, New Mexico MPS 104302
2004 04 15.26277 12 06 02.12 +07 12 56.0 19.3   704 – Lincoln Laboratory ETS, New Mexico MPS 104302
2004 04 15.28492 12 06 01.25 +07 12 59.6 19.9   704 – Lincoln Laboratory ETS, New Mexico MPS 104302
2004 04 20.25354 12 03 17.55 +07 20 55.9 19.1   704 – Lincoln Laboratory ETS, New Mexico MPS 105097
2004 04 20.26478 12 03 17.19 +07 20 55.9 20.1   704 – Lincoln Laboratory ETS, New Mexico MPS 105097
2004 04 20.29804 12 03 16.13 +07 21 01.5 20.3   704 – Lincoln Laboratory ETS, New Mexico MPS 105097
2004 04 21.26776 12 02 47.30 +07 22 05.2 19.9 V 691 – Steward Observatory, Kitt Peak-Spacewatch MPS 105097
